contact:dominique.lefevre@mio.osupytheas.fr, maurice.libes@osupytheas.fr, didier.mallarino@osupytheas.fr
Project:EMSO http://www.emso-fr.org/EMSO-France
Depth: 2436.0 m
Title:EMSO Ligure Ouest : Data MII capteur AQUADOPP
Date,Latitude,Longitude,X_East,Y_North,Z_Up,Amplitude_X,Amplitude_Y,Amplitude_Z,Batterie,SoundSpeed,Heading,Pitch,Roll,Pressure,TIS,Speed,Direction
, degrees North, degrees East, m.s-1, m.s-1,m.s-1, 1, 1, 1, Volt, m.s-1, degree, degree, degree, dbar, degree_C, m.s-1, degree
2022-08-21T00:04:02,42.805,6.029,-0.012,-0.001,-0.006,101.0,102.0,101.0,13.3,1505.2,332.4,-0.7,1.8,2470.88,13.29,0.012,265.2
2022-08-21T00:07:02,42.805,6.029,-0.009,0.019,0.011,103.0,102.0,100.0,13.4,1505.2,326.6,-0.8,1.8,2470.823,13.29,0.021,334.7
2022-08-21T00:10:03,42.805,6.029,0.0,0.0,0.007,104.0,100.0,101.0,13.3,1505.2,322.7,-0.8,1.8,2470.812,13.29,0.0,0.0
2022-08-21T00:13:03,42.805,6.029,-0.01,0.017,0.012,103.0,100.0,100.0,13.4,1505.2,320.9,-0.8,1.8,2470.834,13.29,0.019,329.5
2022-08-21T00:16:03,42.805,6.029,0.013,0.012,-0.002,102.0,101.0,100.0,13.3,1505.2,324.3,-0.8,1.8,2470.82,13.29,0.017,47.3
2022-08-21T00:19:03,42.805,6.029,-0.005,0.012,-0.002,102.0,102.0,101.0,13.4,1505.2,319.7,-0.8,1.8,2470.831,13.29,0.013,337.4
2022-08-21T00:22:02,42.805,6.029,-0.032,0.013,0.035,102.0,101.0,100.0,13.4,1505.2,330.6,-0.8,1.8,2470.828,13.29,0.034,292.1
2022-08-21T00:25:03,42.805,6.029,-0.011,-0.004,-0.015,102.0,102.0,101.0,13.4,1505.2,322.7,-0.7,1.8,2470.849,13.29,0.011,250.0
2022-08-21T00:28:03,42.805,6.029,-0.025,0.02,0.007,102.0,102.0,101.0,13.4,1505.2,323.1,-0.7,1.9,2470.834,13.29,0.032,308.7
2022-08-21T00:31:03,42.805,6.029,-0.034,-0.005,-0.028,100.0,104.0,101.0,13.4,1505.2,324.8,-0.7,1.8,2470.841,13.29,0.034,261.6
2022-08-21T00:34:03,42.805,6.029,-0.013,0.017,0.003,103.0,101.0,100.0,13.3,1505.2,333.4,-0.7,1.8,2470.818,13.29,0.021,322.6
2022-08-21T00:37:03,42.805,6.029,-0.013,0.019,0.006,102.0,102.0,100.0,13.3,1505.2,320.1,-0.8,1.8,2470.813,13.29,0.023,325.6
2022-08-21T00:40:03,42.805,6.029,-0.001,0.0,-0.009,101.0,101.0,101.0,13.4,1505.2,326.4,-0.8,1.8,2470.809,13.29,0.001,270.0
2022-08-21T00:43:03,42.805,6.029,-0.022,0.009,-0.006,101.0,102.0,102.0,13.4,1505.2,328.0,-0.8,1.8,2470.831,13.29,0.023,292.2
2022-08-21T00:46:03,42.805,6.029,-0.008,-0.001,0.0,101.0,102.0,101.0,13.3,1505.2,326.1,-0.8,1.8,2470.864,13.29,0.008,262.9
2022-08-21T00:49:03,42.805,6.029,-0.002,0.026,-0.008,101.0,102.0,101.0,13.4,1505.2,322.8,-0.7,1.8,2470.823,13.29,0.026,355.6
2022-08-21T00:52:03,42.805,6.029,-0.02,-0.013,-0.039,102.0,101.0,100.0,13.4,1505.2,323.8,-0.7,1.8,2470.829,13.29,0.023,237.0
2022-08-21T00:55:03,42.805,6.029,-0.002,0.006,-0.017,101.0,102.0,101.0,13.4,1505.2,320.7,-0.8,1.8,2470.799,13.29,0.006,341.6
2022-08-21T00:58:03,42.805,6.029,-0.024,0.0,-0.024,101.0,100.0,101.0,13.4,1505.2,323.1,-0.8,1.8,2470.816,13.29,0.024,270.0
2022-08-21T01:04:02,42.805,6.029,-0.007,0.002,0.0,106.0,103.0,102.0,13.4,1505.2,326.4,-0.8,1.8,2470.856,13.29,0.007,285.9
2022-08-21T01:07:02,42.805,6.029,-0.022,-0.005,-0.014,101.0,101.0,101.0,13.3,1505.2,326.4,-0.8,1.8,2470.87,13.29,0.022,257.2
2022-08-21T01:10:03,42.805,6.029,-0.022,0.011,-0.003,102.0,101.0,100.0,13.3,1505.2,323.1,-0.8,1.8,2470.86,13.29,0.024,296.6
2022-08-21T01:13:03,42.805,6.029,-0.002,-0.002,-0.009,101.0,101.0,102.0,13.4,1505.2,317.5,-0.7,1.8,2470.856,13.29,0.002,225.0
2022-08-21T01:16:03,42.805,6.029,-0.013,0.005,-0.018,102.0,102.0,100.0,13.4,1505.2,324.0,-0.8,1.8,2470.853,13.29,0.013,291.0
2022-08-21T01:19:03,42.805,6.029,-0.021,0.008,-0.011,103.0,103.0,100.0,13.4,1505.2,327.1,-0.8,1.8,2470.843,13.29,0.022,290.9
2022-08-21T01:22:03,42.805,6.029,0.002,0.001,-0.022,103.0,103.0,100.0,13.4,1505.2,323.3,-0.7,1.8,2470.793,13.29,0.002,63.4
2022-08-21T01:25:03,42.805,6.029,0.006,0.023,0.013,100.0,102.0,101.0,13.4,1505.2,322.3,-0.8,1.8,2470.83,13.29,0.023,14.6
2022-08-21T01:28:03,42.805,6.029,-0.015,0.012,-0.006,103.0,102.0,101.0,13.3,1505.2,322.3,-0.8,1.8,2470.825,13.29,0.019,308.7
2022-08-21T01:31:03,42.805,6.029,-0.034,0.007,-0.017,102.0,102.0,100.0,13.4,1505.2,325.8,-0.8,1.8,2470.808,13.29,0.034,281.6
2022-08-21T01:34:03,42.805,6.029,0.002,-0.015,-0.023,102.0,105.0,100.0,13.3,1505.2,327.9,-0.8,1.8,2470.858,13.29,0.015,172.4
2022-08-21T01:37:03,42.805,6.029,-0.011,0.01,-0.006,103.0,102.0,101.0,13.3,1505.2,331.4,-0.8,1.8,2470.839,13.29,0.014,312.3
2022-08-21T01:40:03,42.805,6.029,-0.024,0.0,-0.014,100.0,102.0,102.0,13.4,1505.2,328.2,-0.7,1.8,2470.814,13.29,0.024,270.0
2022-08-21T01:43:03,42.805,6.029,-0.002,0.025,-0.009,101.0,103.0,101.0,13.3,1505.2,333.4,-0.7,1.8,2470.846,13.29,0.025,355.4
2022-08-21T01:46:03,42.805,6.029,-0.005,0.001,-0.026,101.0,104.0,102.0,13.4,1505.2,325.6,-0.8,1.8,2470.835,13.29,0.005,281.3
2022-08-21T01:49:03,42.805,6.029,-0.002,-0.01,-0.022,101.0,102.0,101.0,13.4,1505.2,324.2,-0.8,1.8,2470.825,13.29,0.01,191.3
2022-08-21T01:52:03,42.805,6.029,-0.035,0.007,0.0,102.0,101.0,101.0,13.3,1505.2,328.8,-0.7,1.8,2470.783,13.29,0.035,281.3
2022-08-21T01:55:03,42.805,6.029,-0.036,0.008,-0.027,102.0,102.0,101.0,13.3,1505.2,330.6,-0.8,1.8,2470.8,13.29,0.036,282.5
2022-08-21T01:58:03,42.805,6.029,0.0,0.007,-0.009,101.0,102.0,102.0,13.4,1505.2,334.2,-0.8,1.8,2470.802,13.29,0.007,0.0
2022-08-21T02:04:02,42.805,6.029,-0.016,-0.001,0.008,102.0,102.0,100.0,13.4,1505.2,327.9,-0.8,1.8,2470.862,13.29,0.016,266.4
2022-08-21T02:07:03,42.805,6.029,-0.007,0.0,-0.02,103.0,101.0,101.0,13.3,1505.2,324.7,-0.8,1.8,2470.825,13.29,0.007,270.0
2022-08-21T02:10:03,42.805,6.029,-0.018,0.006,0.001,104.0,102.0,99.0,13.4,1505.2,322.5,-0.7,1.8,2470.859,13.29,0.018,288.4
2022-08-21T02:13:03,42.805,6.029,-0.019,0.016,0.018,101.0,101.0,100.0,13.4,1505.2,319.4,-0.8,1.8,2470.816,13.29,0.024,310.1
2022-08-21T02:16:03,42.805,6.029,-0.009,0.006,-0.036,103.0,101.0,100.0,13.4,1505.2,322.0,-0.7,1.8,2470.812,13.29,0.01,303.7
2022-08-21T02:19:03,42.805,6.029,-0.011,0.01,0.0,102.0,102.0,101.0,13.4,1505.2,324.2,-0.8,1.8,2470.804,13.29,0.014,312.3
2022-08-21T02:22:03,42.805,6.029,-0.027,-0.002,-0.014,101.0,102.0,101.0,13.4,1505.2,328.7,-0.7,1.8,2470.822,13.29,0.027,265.8
2022-08-21T02:25:03,42.805,6.029,-0.01,-0.019,0.002,101.0,102.0,100.0,13.4,1505.2,332.9,-0.8,1.8,2470.82,13.29,0.021,207.8
2022-08-21T02:28:03,42.805,6.029,-0.004,-0.007,-0.022,101.0,102.0,100.0,13.3,1505.2,327.9,-0.8,1.9,2470.865,13.29,0.008,209.7
2022-08-21T02:31:03,42.805,6.029,-0.02,0.009,-0.011,101.0,102.0,102.0,13.3,1505.2,326.1,-0.7,1.9,2470.831,13.29,0.021,294.2
2022-08-21T02:34:03,42.805,6.029,-0.028,0.002,-0.023,104.0,101.0,99.0,13.3,1505.2,323.4,-0.7,1.8,2470.81,13.29,0.028,274.1
2022-08-21T02:37:03,42.805,6.029,-0.017,0.001,-0.033,103.0,102.0,100.0,13.3,1505.2,330.5,-0.7,1.8,2470.845,13.29,0.017,273.4
2022-08-21T02:40:03,42.805,6.029,-0.012,0.022,0.017,102.0,99.0,100.0,13.4,1505.2,331.8,-0.7,1.8,2470.823,13.29,0.025,331.4
2022-08-21T02:43:03,42.805,6.029,-0.015,0.015,-0.007,103.0,102.0,100.0,13.4,1505.2,324.5,-0.8,1.8,2470.797,13.29,0.021,315.0
2022-08-21T02:46:03,42.805,6.029,0.0,0.006,-0.018,102.0,102.0,101.0,13.4,1505.2,322.1,-0.8,1.8,2470.834,13.29,0.006,0.0
2022-08-21T02:49:03,42.805,6.029,-0.021,0.008,-0.015,103.0,102.0,100.0,13.4,1505.2,328.1,-0.8,1.8,2470.841,13.29,0.022,290.9
2022-08-21T02:52:03,42.805,6.029,-0.018,0.02,-0.027,100.0,102.0,101.0,13.3,1505.2,318.0,-0.8,1.8,2470.767,13.29,0.026,318.0
2022-08-21T02:55:03,42.805,6.029,0.0,-0.005,-0.019,101.0,102.0,101.0,13.3,1505.2,321.0,-0.8,1.8,2470.829,13.29,0.005,180.0
2022-08-21T02:58:03,42.805,6.029,0.001,-0.001,-0.017,102.0,101.0,101.0,13.3,1505.2,326.3,-0.8,1.8,2470.828,13.29,0.001,135.0
2022-08-21T03:04:02,42.805,6.029,-0.006,0.031,-0.006,103.0,102.0,101.0,13.4,1505.2,332.6,-0.8,1.8,2470.852,13.29,0.031,349.0
2022-08-21T03:07:02,42.805,6.029,-0.023,-0.001,-0.004,102.0,100.0,101.0,13.3,1505.2,324.4,-0.8,1.8,2470.876,13.29,0.023,267.5
2022-08-21T03:10:03,42.805,6.029,-0.007,-0.004,-0.037,101.0,104.0,101.0,13.3,1505.2,319.7,-0.8,1.8,2470.837,13.29,0.008,240.3
2022-08-21T03:13:03,42.805,6.029,-0.006,0.01,-0.019,100.0,102.0,102.0,13.3,1505.2,331.8,-0.8,1.8,2470.789,13.29,0.011,329.0
2022-08-21T03:16:03,42.805,6.029,-0.023,0.007,-0.029,102.0,102.0,102.0,13.4,1505.2,328.1,-0.8,1.8,2470.809,13.29,0.024,286.9
2022-08-21T03:19:03,42.805,6.029,-0.017,0.01,-0.024,103.0,102.0,101.0,13.4,1505.2,323.9,-0.8,1.8,2470.813,13.29,0.019,300.5
2022-08-21T03:22:03,42.805,6.029,-0.018,-0.013,-0.033,102.0,103.0,99.0,13.4,1505.2,328.1,-0.8,1.8,2470.791,13.29,0.022,234.2
2022-08-21T03:25:03,42.805,6.029,-0.016,0.0,-0.005,103.0,102.0,100.0,13.3,1505.2,322.7,-0.8,1.8,2470.827,13.29,0.016,270.0
2022-08-21T03:28:03,42.805,6.029,-0.002,-0.007,-0.018,104.0,101.0,101.0,13.4,1505.2,322.5,-0.8,1.8,2470.785,13.3,0.007,195.9
2022-08-21T03:31:03,42.805,6.029,-0.012,0.006,0.0,101.0,101.0,101.0,13.4,1505.2,323.8,-0.8,1.8,2470.828,13.3,0.013,296.6
2022-08-21T03:34:03,42.805,6.029,-0.021,0.008,-0.034,101.0,102.0,100.0,13.3,1505.2,321.5,-0.8,1.8,2470.789,13.3,0.022,290.9
2022-08-21T03:37:03,42.805,6.029,-0.007,0.005,0.009,102.0,102.0,99.0,13.3,1505.2,318.4,-0.8,1.8,2470.831,13.3,0.008,305.5
2022-08-21T03:40:03,42.805,6.029,-0.007,-0.007,0.008,101.0,102.0,101.0,13.4,1505.2,323.4,-0.8,1.8,2470.822,13.3,0.009,225.0
2022-08-21T03:43:03,42.805,6.029,0.006,0.001,0.0,102.0,102.0,101.0,13.4,1505.2,333.4,-0.8,1.9,2470.795,13.3,0.006,80.5
2022-08-21T03:46:03,42.805,6.029,-0.024,0.004,-0.008,104.0,101.0,101.0,13.3,1505.2,327.3,-0.8,1.8,2470.802,13.3,0.024,279.5
2022-08-21T03:49:03,42.805,6.029,-0.031,0.007,-0.021,101.0,102.0,101.0,13.4,1505.2,318.7,-0.8,1.8,2470.791,13.3,0.031,282.7
2022-08-21T03:52:03,42.805,6.029,0.012,0.003,-0.023,102.0,102.0,100.0,13.3,1505.2,329.4,-0.8,1.8,2470.795,13.3,0.012,76.0
2022-08-21T03:55:03,42.805,6.029,-0.006,0.018,0.008,101.0,102.0,101.0,13.4,1505.2,321.0,-0.7,1.8,2470.766,13.3,0.018,341.6
2022-08-21T03:58:03,42.805,6.029,-0.012,0.01,-0.002,103.0,103.0,100.0,13.4,1505.2,320.0,-0.7,1.9,2470.784,13.3,0.015,309.8
2022-08-21T04:04:02,42.805,6.029,-0.012,0.007,-0.02,103.0,101.0,101.0,13.4,1505.2,322.5,-0.8,1.8,2470.84,13.29,0.013,300.3
2022-08-21T04:07:03,42.805,6.029,-0.02,-0.01,-0.016,102.0,103.0,101.0,13.3,1505.2,322.4,-0.8,1.8,2470.808,13.29,0.022,243.4
2022-08-21T04:10:03,42.805,6.029,-0.006,0.013,-0.018,101.0,103.0,102.0,13.3,1505.2,328.5,-0.7,1.9,2470.841,13.3,0.014,335.2
2022-08-21T04:13:03,42.805,6.029,-0.017,0.002,-0.01,102.0,103.0,100.0,13.3,1505.2,327.3,-0.8,1.8,2470.822,13.3,0.017,276.7
2022-08-21T04:16:03,42.805,6.029,0.003,0.004,0.03,102.0,102.0,100.0,13.4,1505.2,319.4,-0.7,1.8,2470.824,13.3,0.005,36.9
2022-08-21T04:19:03,42.805,6.029,0.001,-0.003,0.018,102.0,101.0,101.0,13.4,1505.2,323.7,-0.8,1.8,2470.798,13.3,0.003,161.6
2022-08-21T04:22:03,42.805,6.029,-0.025,0.0,-0.021,101.0,103.0,101.0,13.3,1505.2,317.7,-0.8,1.8,2470.861,13.3,0.025,270.0
2022-08-21T04:25:03,42.805,6.029,-0.016,-0.003,0.015,104.0,102.0,101.0,13.4,1505.2,324.8,-0.8,1.9,2470.822,13.3,0.016,259.4
2022-08-21T04:28:03,42.805,6.029,-0.013,-0.01,-0.011,100.0,102.0,101.0,13.3,1505.2,327.6,-0.7,1.8,2470.802,13.3,0.016,232.4
2022-08-21T04:31:03,42.805,6.029,-0.028,-0.001,-0.016,103.0,103.0,100.0,13.3,1505.2,327.9,-0.7,1.8,2470.773,13.3,0.028,268.0
2022-08-21T04:34:03,42.805,6.029,-0.008,0.009,0.011,101.0,101.0,102.0,13.4,1505.2,328.7,-0.8,1.8,2470.779,13.3,0.012,318.4
2022-08-21T04:37:03,42.805,6.029,-0.016,0.011,-0.008,101.0,103.0,101.0,13.4,1505.2,325.7,-0.7,1.8,2470.831,13.3,0.019,304.5
2022-08-21T04:40:03,42.805,6.029,-0.023,0.011,-0.033,101.0,102.0,101.0,13.4,1505.2,333.4,-0.8,1.8,2470.772,13.3,0.025,295.6
2022-08-21T04:43:03,42.805,6.029,-0.014,0.012,-0.026,102.0,101.0,102.0,13.3,1505.2,326.1,-0.7,1.8,2470.792,13.3,0.018,310.6
2022-08-21T04:46:03,42.805,6.029,-0.03,0.009,-0.012,104.0,103.0,100.0,13.4,1505.2,328.5,-0.8,1.8,2470.808,13.3,0.031,286.7
2022-08-21T04:49:03,42.805,6.029,-0.006,0.0,-0.007,102.0,104.0,101.0,13.4,1505.2,321.5,-0.8,1.8,2470.799,13.3,0.006,270.0
2022-08-21T04:52:03,42.805,6.029,-0.015,0.008,-0.019,102.0,102.0,101.0,13.3,1505.2,327.0,-0.8,1.8,2470.807,13.3,0.017,298.1
2022-08-21T04:55:03,42.805,6.029,-0.014,0.005,-0.009,102.0,103.0,102.0,13.4,1505.2,323.0,-0.8,1.8,2470.78,13.3,0.014,289.6
2022-08-21T04:58:02,42.805,6.029,-0.014,0.018,-0.019,102.0,103.0,102.0,13.4,1505.2,326.8,-0.8,1.8,2470.804,13.3,0.022,322.1
2022-08-21T05:04:02,42.805,6.029,-0.003,-0.014,0.012,101.0,103.0,101.0,13.3,1505.2,319.9,-0.7,1.8,2470.778,13.29,0.014,192.1
2022-08-21T05:07:03,42.805,6.029,-0.03,0.006,-0.046,104.0,102.0,102.0,13.3,1505.2,321.5,-0.8,1.8,2470.768,13.29,0.03,281.3
2022-08-21T05:10:03,42.805,6.029,-0.03,-0.01,-0.027,102.0,102.0,100.0,13.4,1505.2,327.0,-0.8,1.8,2470.847,13.3,0.031,251.6
2022-08-21T05:13:03,42.805,6.029,-0.03,-0.002,-0.019,103.0,102.0,101.0,13.3,1505.2,323.2,-0.8,1.8,2470.814,13.3,0.03,266.2
2022-08-21T05:16:03,42.805,6.029,-0.018,0.0,0.008,101.0,101.0,102.0,13.4,1505.2,319.1,-0.8,1.8,2470.779,13.3,0.018,270.0
2022-08-21T05:19:03,42.805,6.029,-0.034,0.008,-0.015,102.0,102.0,101.0,13.3,1505.2,328.7,-0.7,1.8,2470.793,13.3,0.034,283.2
2022-08-21T05:22:03,42.805,6.029,0.001,0.005,-0.009,102.0,102.0,101.0,13.4,1505.2,329.5,-0.8,1.8,2470.831,13.3,0.005,11.3
2022-08-21T05:25:03,42.805,6.029,-0.005,0.002,-0.013,103.0,102.0,101.0,13.4,1505.2,319.1,-0.8,1.8,2470.801,13.3,0.005,291.8
2022-08-21T05:28:03,42.805,6.029,-0.032,-0.001,-0.009,101.0,102.0,100.0,13.3,1505.2,328.0,-0.8,1.8,2470.813,13.3,0.032,268.2
2022-08-21T05:31:03,42.805,6.029,-0.01,-0.006,-0.031,102.0,102.0,100.0,13.3,1505.2,331.7,-0.7,1.8,2470.778,13.3,0.011,239.0
2022-08-21T05:34:03,42.805,6.029,-0.007,0.009,-0.007,102.0,103.0,100.0,13.4,1505.2,324.5,-0.7,1.8,2470.787,13.3,0.011,322.1
2022-08-21T05:37:03,42.805,6.029,0.006,0.013,-0.023,101.0,103.0,101.0,13.3,1505.2,317.2,-0.8,1.8,2470.79,13.3,0.014,24.8
2022-08-21T05:40:03,42.805,6.029,-0.018,-0.014,-0.024,101.0,102.0,101.0,13.4,1505.2,333.7,-0.7,1.8,2470.778,13.3,0.022,232.1
2022-08-21T05:43:03,42.805,6.029,-0.016,-0.013,-0.031,101.0,102.0,101.0,13.3,1505.2,330.6,-0.8,1.8,2470.747,13.3,0.02,230.9
2022-08-21T05:46:03,42.805,6.029,-0.011,-0.007,-0.007,104.0,102.0,101.0,13.4,1505.2,327.1,-0.7,1.8,2470.765,13.3,0.013,237.5
2022-08-21T05:49:03,42.805,6.029,-0.023,0.001,-0.051,100.0,103.0,101.0,13.3,1505.2,330.3,-0.8,1.8,2470.806,13.3,0.023,272.5
2022-08-21T05:52:03,42.805,6.029,-0.004,-0.007,0.001,103.0,103.0,100.0,13.3,1505.2,327.3,-0.8,1.8,2470.756,13.3,0.008,209.7
2022-08-21T05:55:03,42.805,6.029,-0.007,0.003,0.01,102.0,101.0,101.0,13.4,1505.2,325.1,-0.7,1.8,2470.783,13.3,0.007,293.2
2022-08-21T05:58:03,42.805,6.029,-0.019,-0.002,-0.026,102.0,101.0,102.0,13.4,1505.2,322.5,-0.7,1.8,2470.772,13.3,0.019,264.0
2022-08-21T06:04:02,42.805,6.029,-0.028,-0.014,0.003,104.0,102.0,101.0,13.4,1505.2,324.3,-0.7,1.8,2470.794,13.29,0.031,243.4
2022-08-21T06:07:03,42.805,6.029,0.006,-0.01,-0.042,108.0,101.0,101.0,13.4,1505.2,322.0,-0.7,1.8,2470.813,13.29,0.011,149.0
2022-08-21T06:10:03,42.805,6.029,-0.014,-0.009,-0.026,101.0,102.0,100.0,13.3,1505.2,320.1,-0.7,1.8,2470.772,13.29,0.016,237.3
2022-08-21T06:13:03,42.805,6.029,0.014,0.007,-0.003,102.0,101.0,102.0,13.4,1505.2,327.4,-0.7,1.8,2470.84,13.29,0.015,63.4
2022-08-21T06:16:03,42.805,6.029,-0.017,-0.003,-0.009,103.0,102.0,99.0,13.4,1505.2,323.9,-0.7,1.8,2470.774,13.3,0.017,260.0
2022-08-21T06:19:03,42.805,6.029,0.006,0.009,0.013,102.0,102.0,100.0,13.4,1505.2,324.9,-0.7,1.8,2470.758,13.3,0.01,33.7
2022-08-21T06:22:03,42.805,6.029,0.006,-0.003,-0.012,103.0,101.0,101.0,13.4,1505.2,329.8,-0.8,1.8,2470.761,13.3,0.006,116.6
2022-08-21T06:25:03,42.805,6.029,0.001,0.001,-0.005,103.0,102.0,100.0,13.4,1505.2,330.5,-0.7,1.8,2470.781,13.3,0.001,45.0
2022-08-21T06:28:03,42.805,6.029,0.005,-0.001,-0.01,102.0,101.0,100.0,13.4,1505.2,325.7,-0.8,1.8,2470.748,13.29,0.005,101.3
2022-08-21T06:31:03,42.805,6.029,-0.001,-0.007,-0.007,101.0,102.0,100.0,13.4,1505.2,329.9,-0.8,1.8,2470.773,13.29,0.007,188.1
2022-08-21T06:34:03,42.805,6.029,-0.015,0.0,0.006,101.0,102.0,100.0,13.4,1505.2,318.3,-0.8,1.8,2470.777,13.3,0.015,270.0
2022-08-21T06:37:03,42.805,6.029,-0.022,0.008,-0.03,101.0,101.0,101.0,13.3,1505.2,327.8,-0.7,1.8,2470.763,13.3,0.023,290.0
2022-08-21T06:40:03,42.805,6.029,0.001,0.018,0.004,101.0,101.0,101.0,13.4,1505.2,325.7,-0.8,1.8,2470.755,13.3,0.018,3.2
2022-08-21T06:43:03,42.805,6.029,-0.011,-0.006,-0.02,102.0,102.0,100.0,13.4,1505.2,325.9,-0.7,1.8,2470.783,13.3,0.012,241.4
2022-08-21T06:46:03,42.805,6.029,-0.001,-0.013,-0.029,100.0,103.0,100.0,13.4,1505.2,322.9,-0.8,1.8,2470.764,13.3,0.013,184.4
2022-08-21T06:49:03,42.805,6.029,-0.014,-0.005,-0.045,102.0,101.0,101.0,13.4,1505.2,321.2,-0.8,1.8,2470.779,13.3,0.014,250.4
2022-08-21T06:52:03,42.805,6.029,-0.028,0.003,0.008,101.0,102.0,99.0,13.3,1505.2,321.3,-0.7,1.8,2470.751,13.3,0.028,276.1
2022-08-21T06:55:03,42.805,6.029,-0.002,-0.01,-0.021,101.0,101.0,101.0,13.4,1505.2,321.0,-0.8,1.8,2470.767,13.3,0.01,191.3
2022-08-21T06:58:03,42.805,6.029,-0.021,0.008,-0.021,102.0,102.0,101.0,13.4,1505.2,328.7,-0.7,1.8,2470.794,13.3,0.022,290.9
2022-08-21T07:04:03,42.805,6.029,-0.002,-0.002,-0.008,100.0,102.0,100.0,13.4,1505.2,321.7,-0.7,1.8,2470.814,13.29,0.002,225.0
2022-08-21T07:07:03,42.805,6.029,-0.007,0.012,-0.021,102.0,101.0,101.0,13.4,1505.2,324.9,-0.8,1.8,2470.766,13.29,0.013,329.7
2022-08-21T07:10:03,42.805,6.029,-0.004,-0.008,-0.006,101.0,101.0,101.0,13.4,1505.2,325.1,-0.8,1.8,2470.76,13.29,0.008,206.6
2022-08-21T07:13:03,42.805,6.029,-0.015,-0.002,-0.024,103.0,100.0,101.0,13.4,1505.2,324.6,-0.8,1.8,2470.749,13.29,0.015,262.4
2022-08-21T07:16:03,42.805,6.029,-0.013,-0.001,-0.019,102.0,101.0,101.0,13.4,1505.2,325.1,-0.8,1.8,2470.741,13.29,0.013,265.6
2022-08-21T07:19:03,42.805,6.029,0.001,-0.009,-0.032,102.0,103.0,100.0,13.3,1505.2,329.0,-0.8,1.8,2470.767,13.3,0.009,173.7
2022-08-21T07:22:03,42.805,6.029,0.002,0.008,-0.027,104.0,100.0,102.0,13.3,1505.2,327.5,-0.8,1.8,2470.754,13.3,0.008,14.0
2022-08-21T07:25:03,42.805,6.029,-0.007,-0.013,-0.015,101.0,103.0,100.0,13.4,1505.2,329.5,-0.8,1.8,2470.79,13.3,0.014,208.3
2022-08-21T07:28:03,42.805,6.029,-0.013,0.011,0.029,101.0,102.0,101.0,13.3,1505.2,321.5,-0.8,1.8,2470.756,13.3,0.017,310.2
2022-08-21T07:31:03,42.805,6.029,-0.021,0.009,-0.013,102.0,101.0,101.0,13.4,1505.2,320.7,-0.8,1.9,2470.736,13.3,0.022,293.2
2022-08-21T07:34:03,42.805,6.029,-0.014,0.001,-0.035,102.0,102.0,100.0,13.3,1505.2,327.5,-0.8,1.8,2470.781,13.3,0.014,274.1
2022-08-21T07:37:03,42.805,6.029,-0.014,0.008,-0.015,102.0,101.0,101.0,13.3,1505.2,323.8,-0.8,1.8,2470.765,13.3,0.016,299.7
2022-08-21T07:40:03,42.805,6.029,-0.012,0.019,0.008,102.0,102.0,101.0,13.3,1505.2,328.3,-0.7,1.8,2470.776,13.3,0.022,327.7
2022-08-21T07:43:03,42.805,6.029,-0.012,-0.006,-0.011,101.0,102.0,101.0,13.3,1505.2,331.1,-0.7,1.8,2470.749,13.3,0.013,243.4
2022-08-21T07:46:03,42.805,6.029,-0.004,0.002,0.006,102.0,101.0,101.0,13.4,1505.2,324.4,-0.8,1.8,2470.771,13.3,0.004,296.6
2022-08-21T07:49:03,42.805,6.029,-0.03,0.01,-0.002,103.0,103.0,101.0,13.4,1505.2,327.1,-0.7,1.8,2470.747,13.3,0.031,288.4
2022-08-21T07:52:03,42.805,6.029,-0.001,0.018,0.015,102.0,102.0,101.0,13.4,1505.2,332.3,-0.7,1.8,2470.741,13.3,0.018,356.8
2022-08-21T07:55:03,42.805,6.029,0.004,0.022,0.003,102.0,102.0,100.0,13.4,1505.2,324.4,-0.8,1.8,2470.766,13.3,0.022,10.3
2022-08-21T07:58:03,42.805,6.029,-0.006,0.006,-0.016,103.0,102.0,101.0,13.3,1505.2,333.1,-0.8,1.8,2470.742,13.3,0.008,315.0
2022-08-21T08:04:03,42.805,6.029,-0.018,-0.009,0.008,103.0,102.0,100.0,13.4,1505.2,317.6,-0.7,1.8,2470.812,13.29,0.02,243.4
2022-08-21T08:07:03,42.805,6.029,-0.001,0.021,0.0,101.0,102.0,100.0,13.3,1505.2,320.6,-0.8,1.8,2470.761,13.29,0.021,357.3
2022-08-21T08:10:03,42.805,6.029,-0.019,0.002,-0.028,104.0,102.0,101.0,13.4,1505.2,330.8,-0.8,1.8,2470.785,13.29,0.019,276.0
2022-08-21T08:13:03,42.805,6.029,-0.01,0.009,-0.026,101.0,102.0,101.0,13.4,1505.2,327.4,-0.8,1.8,2470.76,13.29,0.013,312.0
2022-08-21T08:16:03,42.805,6.029,0.014,-0.007,-0.036,101.0,103.0,101.0,13.4,1505.2,321.6,-0.8,1.8,2470.799,13.29,0.015,116.6
2022-08-21T08:19:03,42.805,6.029,-0.001,-0.007,-0.025,102.0,102.0,100.0,13.3,1505.2,323.4,-0.8,1.8,2470.754,13.29,0.007,188.1
2022-08-21T08:22:03,42.805,6.029,-0.008,0.003,-0.018,102.0,103.0,100.0,13.4,1505.2,324.7,-0.7,1.8,2470.725,13.29,0.008,290.6
2022-08-21T08:25:03,42.805,6.029,-0.018,0.005,-0.024,102.0,103.0,101.0,13.4,1505.2,322.9,-0.7,1.8,2470.752,13.29,0.018,285.5
2022-08-21T08:28:03,42.805,6.029,-0.009,0.016,-0.014,102.0,102.0,100.0,13.4,1505.2,332.3,-0.7,1.8,2470.746,13.29,0.018,330.6
2022-08-21T08:31:03,42.805,6.029,-0.036,0.032,0.017,102.0,102.0,101.0,13.4,1505.2,329.2,-0.8,1.8,2470.769,13.29,0.048,311.6
2022-08-21T08:34:03,42.805,6.029,-0.02,0.008,0.004,102.0,102.0,101.0,13.4,1505.2,322.4,-0.8,1.8,2470.734,13.29,0.021,291.8
2022-08-21T08:37:03,42.805,6.029,-0.025,0.006,-0.038,102.0,103.0,100.0,13.4,1505.2,327.0,-0.7,1.8,2470.763,13.29,0.025,283.5
2022-08-21T08:40:03,42.805,6.029,-0.021,-0.026,-0.057,102.0,103.0,101.0,13.3,1505.2,322.2,-0.8,1.8,2470.762,13.29,0.033,218.9
2022-08-21T08:43:03,42.805,6.029,0.0,0.01,-0.002,102.0,102.0,101.0,13.3,1505.2,333.9,-0.7,1.8,2470.783,13.29,0.01,0.0
2022-08-21T08:46:03,42.805,6.029,-0.014,0.018,0.017,102.0,102.0,100.0,13.3,1505.2,322.0,-0.7,1.8,2470.761,13.29,0.022,322.1
2022-08-21T08:49:03,42.805,6.029,-0.01,-0.007,-0.035,102.0,103.0,102.0,13.4,1505.2,327.3,-0.8,1.8,2470.762,13.29,0.012,235.0
2022-08-21T08:52:03,42.805,6.029,0.0,-0.002,-0.033,102.0,102.0,100.0,13.3,1505.2,331.7,-0.8,1.8,2470.728,13.29,0.002,180.0
2022-08-21T08:55:03,42.805,6.029,0.0,0.007,-0.034,102.0,104.0,101.0,13.3,1505.2,328.1,-0.7,1.8,2470.783,13.29,0.007,0.0
2022-08-21T08:58:03,42.805,6.029,0.0,0.001,-0.006,102.0,103.0,101.0,13.4,1505.2,322.9,-0.8,1.8,2470.751,13.29,0.001,0.0
2022-08-21T09:04:02,42.805,6.029,-0.019,0.018,0.019,102.0,102.0,100.0,13.3,1505.2,327.9,-0.8,1.8,2470.807,13.29,0.026,313.5
2022-08-21T09:07:03,42.805,6.029,0.011,-0.005,0.018,102.0,103.0,102.0,13.4,1505.2,317.9,-0.8,1.8,2470.823,13.29,0.012,114.4
2022-08-21T09:10:03,42.805,6.029,-0.006,-0.001,-0.011,103.0,102.0,101.0,13.3,1505.2,325.0,-0.8,1.8,2470.756,13.29,0.006,260.5
2022-08-21T09:13:03,42.805,6.029,-0.019,0.003,-0.019,103.0,103.0,99.0,13.4,1505.2,323.9,-0.8,1.8,2470.76,13.29,0.019,279.0
2022-08-21T09:16:03,42.805,6.029,-0.012,-0.001,-0.034,101.0,102.0,102.0,13.4,1505.2,323.3,-0.8,1.8,2470.77,13.29,0.012,265.2
2022-08-21T09:19:03,42.805,6.029,-0.002,0.0,-0.048,102.0,105.0,100.0,13.3,1505.2,320.9,-0.8,1.8,2470.789,13.29,0.002,270.0
2022-08-21T09:22:03,42.805,6.029,0.001,-0.001,-0.022,101.0,103.0,101.0,13.4,1505.2,322.3,-0.8,1.8,2470.745,13.29,0.001,135.0
2022-08-21T09:25:03,42.805,6.029,-0.002,0.039,0.0,104.0,102.0,99.0,13.4,1505.2,324.4,-0.8,1.8,2470.783,13.29,0.039,357.1
2022-08-21T09:28:03,42.805,6.029,-0.015,0.008,0.032,104.0,101.0,100.0,13.4,1505.2,334.2,-0.8,1.8,2470.756,13.29,0.017,298.1
2022-08-21T09:31:03,42.805,6.029,-0.039,0.003,-0.026,101.0,102.0,100.0,13.4,1505.2,322.3,-0.8,1.8,2470.757,13.29,0.039,274.4
2022-08-21T09:34:03,42.805,6.029,-0.016,0.006,-0.038,101.0,105.0,101.0,13.3,1505.2,322.7,-0.7,1.8,2470.777,13.29,0.017,290.6
2022-08-21T09:37:03,42.805,6.029,0.003,0.0,0.01,102.0,101.0,102.0,13.4,1505.2,330.6,-0.7,1.8,2470.757,13.29,0.003,90.0
2022-08-21T09:40:03,42.805,6.029,-0.027,-0.026,-0.048,102.0,101.0,101.0,13.4,1505.2,323.8,-0.8,1.8,2470.763,13.29,0.037,226.1
2022-08-21T09:43:03,42.805,6.029,-0.013,0.021,0.018,101.0,103.0,101.0,13.3,1505.2,319.8,-0.8,1.8,2470.77,13.29,0.024,328.2
2022-08-21T09:46:03,42.805,6.029,-0.011,0.027,0.036,102.0,103.0,101.0,13.3,1505.2,323.3,-0.8,1.8,2470.735,13.29,0.029,337.8
2022-08-21T09:49:03,42.805,6.029,-0.015,-0.005,0.003,102.0,102.0,101.0,13.4,1505.2,318.9,-0.8,1.8,2470.764,13.29,0.015,251.6
2022-08-21T09:52:03,42.805,6.029,-0.001,-0.02,-0.016,101.0,102.0,101.0,13.4,1505.2,326.3,-0.8,1.8,2470.749,13.3,0.02,182.9
2022-08-21T09:55:03,42.805,6.029,-0.028,0.008,0.006,104.0,104.0,100.0,13.4,1505.2,319.8,-0.7,1.8,2470.804,13.3,0.029,285.9
2022-08-21T09:58:03,42.805,6.029,-0.003,-0.011,0.015,102.0,103.0,100.0,13.3,1505.2,332.2,-0.8,1.8,2470.804,13.3,0.011,195.3